Location: Bogis-Bossey
(46.3500°N, 6.1667°E)
Time: 18:00:00
(UTC+00:00)

NOSS 2-2 (E) - Pass Details

Date: 17 August 2022
Orbit: 427 x 1770 km, 63.3° (Epoch: 22 September)

Event Time Altitude Azimuth Distance (km) Brightness Sun altitude
Rises 19:59:35 0° 213° (SSW) 2,442 6.6 -12.7°
Reaches altitude 10° 20:01:40 10° 211° (SSW) 1,531 5.5 -13.0°
Maximum altitude 20:04:55 71° 126° (SE) 459 2.7 -13.5°
Drops below altitude 10° 20:08:19 10° 43° (NE) 1,607 5.6 -14.0°
Sets 20:10:34 0° 41° (NE) 2,581 6.7 -14.3°
